EW9288 Weather Reports


time (UTC)temp
C
wind
direction
speed
KPH
gust
KPH
rain 1hr
cm
rain 24hr
cm
rain mn
cm
humidity
%
barometer
mb
20260502123104 12 207 0.0 0.0 0.00 0.58 0.00 86 1020.9
20260502121604 11 207 0.0 0.0 0.00 0.58 0.00 89 1020.7
20260502114550 10 207 0.0 1.6 0.00 0.58 0.00 89 1020.0
20260502113049 10 207 0.0 0.0 0.00 0.58 0.00 89 1019.8
20260502111555 10 207 0.0 1.6 0.00 0.58 0.00 88 1019.6
20260502110049 10 207 0.0 0.0 0.00 0.58 0.00 88 1019.6
20260502103050 11 207 0.0 0.0 0.00 0.58 0.00 87 1019.3
20260502101555 11 207 0.0 0.0 0.00 0.58 0.00 87 1019.1
20260502071522 12 207 0.0 0.0 0.00 0.58 0.00 86 1018.7
20260502070023 12 208 0.0 3.2 0.00 0.58 0.00 85 1019.0
20260502064528 12 207 1.6 4.8 0.00 0.58 0.00 85 1019.1
20260502063019 12 207 0.0 4.8 0.00 0.58 0.00 86 1019.1
20260502061517 12 207 0.0 1.6 0.00 0.58 0.00 86 1019.2
20260502060015 12 207 3.2 8.0 0.00 0.58 0.00 87 1019.0
20260502054515 12 207 1.6 6.4 0.00 0.58 0.00 88 1019.1
20260502053014 12 207 1.6 6.4 0.00 0.58 0.00 87 1019.0
20260502051512 12 208 0.0 4.8 0.00 0.58 0.00 87 1018.9
20260502050010 12 207 1.6 6.4 0.00 0.58 0.58 87 1019.0
20260502044509 13 207 1.6 8.0 0.00 0.58 0.58 86 1018.9
20260502043009 14 207 0.0 3.2 0.00 0.58 0.58 82 1018.6
20260502041506 14 207 0.0 3.2 0.00 0.58 0.58 81 1018.5
20260502040011 14 207 0.0 1.6 0.00 0.58 0.58 82 1018.7
20260502034505 14 207 0.0 3.2 0.00 0.58 0.58 82 1018.6
20260502033004 15 207 0.0 3.2 0.00 0.58 0.58 81 1018.4
20260502031503 15 207 0.0 4.8 0.00 0.58 0.58 81 1018.3
20260502030002 15 207 0.0 6.4 0.00 0.58 0.58 82 1018.4
20260502024559 15 207 0.0 4.8 0.00 0.58 0.58 81 1018.2
20260502023101 15 207 0.0 4.8 0.00 0.58 0.58 81 1018.1
20260502021556 15 207 0.0 3.2 0.00 0.58 0.58 81 1017.8
20260502020055 15 207 0.0 3.2 0.00 0.58 0.58 81 1017.7
20260502014557 15 207 0.0 3.2 0.00 0.58 0.58 81 1017.2
20260502013058 15 207 0.0 4.8 0.00 0.58 0.58 80 1017.1
20260502011609 15 207 0.0 3.2 0.00 0.58 0.58 79 1016.9
20260502010054 15 207 3.2 9.7 0.00 0.58 0.58 77 1016.8
20260502004602 15 207 3.2 9.7 0.00 0.58 0.58 78 1016.6
20260502003153 15 207 0.0 6.4 0.00 0.58 0.58 75 1016.8
20260502001552 15 207 0.0 4.8 0.00 0.58 0.58 75 1016.4
20260502000107 15 207 1.6 6.4 0.00 0.58 0.58 74 1016.3
20260501234551 15 207 0.0 11.3 0.00 0.58 0.58 74 1016.3
20260501233051 16 207 1.6 11.3 0.00 0.58 0.58 73 1015.9
20260501231600 16 207 3.2 11.3 0.00 0.58 0.58 73 1015.9
20260501230049 16 207 3.2 9.7 0.00 0.58 0.58 73 1015.6
20260501224558 16 207 4.8 14.5 0.00 0.58 0.58 72 1015.1
20260501223050 16 207 1.6 12.9 0.00 0.58 0.58 71 1015.1
20260501221607 16 207 0.0 8.0 0.00 0.58 0.58 73 1015.3
20260501220052 16 207 1.6 11.3 0.00 0.58 0.58 72 1015.0
20260501214547 15 207 3.2 14.5 0.00 0.58 0.58 72 1014.7
20260501213048 15 207 3.2 9.7 0.00 0.58 0.58 71 1015.5
20260501211547 16 207 3.2 9.7 0.00 0.58 0.58 71 1014.7
20260501210046 15 207 1.6 9.7 0.00 0.58 0.58 71 1014.3
20260501204545 15 207 4.8 12.9 0.00 0.58 0.58 69 1014.5
20260501203044 16 207 3.2 14.5 0.00 0.58 0.58 68 1015.2
20260501201544 15 207 4.8 16.1 0.00 0.58 0.58 69 1015.8
20260501200043 15 207 8.0 17.7 0.00 0.58 0.58 69 1015.5
20260501194548 15 208 4.8 16.1 0.00 0.58 0.58 68 1015.7
20260501193042 15 207 4.8 19.3 0.00 0.58 0.58 69 1015.5
20260501191541 15 207 6.4 19.3 0.00 0.58 0.58 74 1015.1
20260501190054 15 208 6.4 19.3 0.00 0.61 0.58 77 1014.9
20260501184538 14 207 8.0 25.7 0.00 0.61 0.58 78 1014.8
20260501183036 14 207 6.4 16.1 0.00 0.61 0.58 83 1015.1
20260501181537 13 206 6.4 16.1 0.00 0.61 0.58 84 1015.3
20260501180035 13 207 3.2 16.1 0.00 0.89 0.58 89 1015.4
20260501174534 12 208 6.4 12.9 0.00 0.89 0.58 92 1015.8
20260501173034 12 208 6.4 19.3 0.00 0.89 0.58 92 1015.9
20260501171532 12 207 1.6 12.9 0.00 0.89 0.58 93 1016.7
20260501170031 12 208 1.6 12.9 0.03 1.91 0.58 93 1016.6
20260501164532 12 206 6.4 17.7 0.05 1.91 0.58 93 1016.7
20260501163029 12 207 4.8 16.1 0.08 1.91 0.58 93 1017.1
20260501161528 12 207 3.2 12.9 0.15 1.91 0.58 94 1017.0
20260501160026 12 207 3.2 14.5 0.18 1.88 0.56 93 1016.9
20260501154537 12 207 4.8 14.5 0.23 1.85 0.53 93 1017.0
20260501153023 12 207 6.4 12.9 0.33 1.83 0.51 93 1017.4
20260501151521 12 207 3.2 9.7 0.28 1.75 0.43 93 1017.6
20260501150022 12 207 1.6 9.7 0.25 1.70 0.38 92 1017.3
20260501144518 12 207 3.2 11.3 0.20 1.63 0.30 91 1016.9
20260501143016 13 207 4.8 9.7 0.08 1.50 0.18 88 1017.3
20260501141518 13 207 1.6 11.3 0.08 1.45 0.15 88 1017.4
20260501140008 13 207 3.2 11.3 0.08 1.42 0.13 88 1016.6
20260501134507 13 207 1.6 9.7 0.08 1.42 0.10 87 1016.1